Year,Month,Day,Hour,Minute,Value (Times are PST for temperature in C)
2023,04,24,14,47,11.80
2023,04,24,14,48,11.80
2023,04,24,14,49,11.80
2023,04,24,14,50,11.80
2023,04,24,14,51,11.80
2023,04,24,14,52,11.90
2023,04,24,14,53,11.90
2023,04,24,14,54,11.90
2023,04,24,14,55,11.90
2023,04,24,14,56,12.00
2023,04,24,14,57,12.00
2023,04,24,14,58,12.00
2023,04,24,14,59,12.10
2023,04,24,15,00,12.20
2023,04,24,15,01,12.20
2023,04,24,15,02,12.30
2023,04,24,15,03,12.30
2023,04,24,15,04,12.40
2023,04,24,15,05,12.60
2023,04,24,15,06,12.60
2023,04,24,15,07,12.60
2023,04,24,15,08,12.60
2023,04,24,15,09,12.70
2023,04,24,15,10,12.70
2023,04,24,15,11,12.70
2023,04,24,15,12,12.80
2023,04,24,15,13,12.80
2023,04,24,15,14,12.70
2023,04,24,15,15,12.80
2023,04,24,15,16,12.80
2023,04,24,15,17,12.90
2023,04,24,15,18,12.90
2023,04,24,15,19,12.90
2023,04,24,15,20,12.90
2023,04,24,15,21,12.90
2023,04,24,15,22,13.00
2023,04,24,15,23,13.00
2023,04,24,15,24,13.10
2023,04,24,15,25,13.10
2023,04,24,15,26,13.10
2023,04,24,15,27,13.10
2023,04,24,15,28,13.10
2023,04,24,15,29,13.10
2023,04,24,15,30,13.10
2023,04,24,15,31,13.10
2023,04,24,15,32,13.10
2023,04,24,15,33,13.20
2023,04,24,15,34,13.20
2023,04,24,15,35,13.30
2023,04,24,15,36,13.40
2023,04,24,15,37,13.40
2023,04,24,15,38,13.40
2023,04,24,15,39,13.40
2023,04,24,15,40,13.40
2023,04,24,15,41,13.40
2023,04,24,15,42,13.30
2023,04,24,15,43,13.30
2023,04,24,15,44,13.30
2023,04,24,15,45,13.40
2023,04,24,15,46,13.40
2023,04,24,15,47,13.40
2023,04,24,15,48,13.40
2023,04,24,15,49,13.40
2023,04,24,15,50,13.50
2023,04,24,15,51,13.60
2023,04,24,15,52,13.70
2023,04,24,15,53,13.70
2023,04,24,15,54,13.70
2023,04,24,15,55,13.70
2023,04,24,15,56,13.70
2023,04,24,15,57,13.70
2023,04,24,15,58,13.70
2023,04,24,15,59,13.70
2023,04,24,16,00,13.70
2023,04,24,16,01,13.70
2023,04,24,16,02,13.70
2023,04,24,16,03,13.70
2023,04,24,16,04,13.70
2023,04,24,16,05,13.70
2023,04,24,16,06,13.70
2023,04,24,16,07,13.80
2023,04,24,16,08,13.80
2023,04,24,16,09,13.90
2023,04,24,16,10,13.90
2023,04,24,16,11,13.90
2023,04,24,16,12,14.00
2023,04,24,16,13,14.10
2023,04,24,16,14,14.10
2023,04,24,16,15,14.10
2023,04,24,16,16,14.10
2023,04,24,16,17,14.20
2023,04,24,16,18,14.20
2023,04,24,16,19,14.20
2023,04,24,16,20,14.20
2023,04,24,16,21,14.20
2023,04,24,16,22,14.20
2023,04,24,16,23,14.20
2023,04,24,16,24,14.20
2023,04,24,16,25,14.10
2023,04,24,16,26,14.00
2023,04,24,16,27,14.00
2023,04,24,16,28,14.00
2023,04,24,16,29,13.90
2023,04,24,16,30,14.00
2023,04,24,16,31,14.00
2023,04,24,16,32,13.90
2023,04,24,16,33,13.90
2023,04,24,16,34,13.90
2023,04,24,16,35,13.80
2023,04,24,16,36,13.90
2023,04,24,16,37,14.00
2023,04,24,16,38,14.00
2023,04,24,16,39,14.00
2023,04,24,16,40,14.10
2023,04,24,16,41,14.10
2023,04,24,16,42,14.10
2023,04,24,16,43,14.10
2023,04,24,16,44,14.10
2023,04,24,16,45,14.10
2023,04,24,16,46,14.00
2023,04,24,16,47,14.00
2023,04,24,16,48,14.00
2023,04,24,16,49,14.00
2023,04,24,16,50,14.00
2023,04,24,16,51,14.00
2023,04,24,16,52,14.00
2023,04,24,16,53,14.00
2023,04,24,16,54,13.90
2023,04,24,16,55,13.90
2023,04,24,16,56,13.90
2023,04,24,16,57,14.00
2023,04,24,16,58,14.00
2023,04,24,16,59,14.10
2023,04,24,17,00,14.20
2023,04,24,17,01,14.20
2023,04,24,17,02,14.20
2023,04,24,17,03,14.20
2023,04,24,17,04,14.10
2023,04,24,17,05,14.10
2023,04,24,17,06,14.10
2023,04,24,17,07,14.00
2023,04,24,17,08,13.90
2023,04,24,17,09,13.90
2023,04,24,17,10,13.90
2023,04,24,17,11,14.00
2023,04,24,17,12,14.10
2023,04,24,17,13,14.10
2023,04,24,17,14,14.10
2023,04,24,17,15,14.20
2023,04,24,17,16,14.20
2023,04,24,17,17,14.20
2023,04,24,17,18,14.20
2023,04,24,17,19,14.20
2023,04,24,17,20,14.20
2023,04,24,17,21,14.20
2023,04,24,17,22,14.10
2023,04,24,17,23,14.00
2023,04,24,17,24,14.00
2023,04,24,17,25,14.00
2023,04,24,17,26,14.10
2023,04,24,17,27,14.10
2023,04,24,17,28,14.10
2023,04,24,17,29,14.10
2023,04,24,17,30,14.20
2023,04,24,17,31,14.20
2023,04,24,17,32,14.30
2023,04,24,17,33,14.30
2023,04,24,17,34,14.30
2023,04,24,17,35,14.30
2023,04,24,17,36,14.40
2023,04,24,17,37,14.40
2023,04,24,17,38,14.40
2023,04,24,17,39,14.40
2023,04,24,17,40,14.40
2023,04,24,17,41,14.40
2023,04,24,17,42,14.40
2023,04,24,17,43,14.40
2023,04,24,17,44,14.40
2023,04,24,17,45,14.30
2023,04,24,17,46,14.30
2023,04,24,17,47,14.30
2023,04,24,17,48,14.10
2023,04,24,17,49,14.00
2023,04,24,17,50,13.90
2023,04,24,17,51,13.80
2023,04,24,17,52,13.80
2023,04,24,17,53,13.80
2023,04,24,17,54,13.70
2023,04,24,17,55,13.70
2023,04,24,17,56,13.70
2023,04,24,17,57,13.80
2023,04,24,17,58,13.80
2023,04,24,17,59,13.80
2023,04,24,18,00,13.80
2023,04,24,18,01,13.80
2023,04,24,18,02,13.90
2023,04,24,18,03,13.80
2023,04,24,18,04,13.70
2023,04,24,18,05,13.60
2023,04,24,18,06,13.60
2023,04,24,18,07,13.60
2023,04,24,18,08,13.60
2023,04,24,18,09,13.50
2023,04,24,18,10,13.40
2023,04,24,18,11,13.40
2023,04,24,18,12,13.30
2023,04,24,18,13,13.30
2023,04,24,18,14,13.20
2023,04,24,18,15,13.20
2023,04,24,18,16,13.20
2023,04,24,18,17,13.30
2023,04,24,18,18,13.30
2023,04,24,18,19,13.40
2023,04,24,18,20,13.40
2023,04,24,18,21,13.50
2023,04,24,18,22,13.50
2023,04,24,18,23,13.60
2023,04,24,18,24,13.60
2023,04,24,18,25,13.60
2023,04,24,18,26,13.60
2023,04,24,18,27,13.50
2023,04,24,18,28,13.50
2023,04,24,18,29,13.40
2023,04,24,18,30,13.40
2023,04,24,18,31,13.40
2023,04,24,18,32,13.40
2023,04,24,18,33,13.40
2023,04,24,18,34,13.40
2023,04,24,18,35,13.40
2023,04,24,18,36,13.40
2023,04,24,18,37,13.40
2023,04,24,18,38,13.30
2023,04,24,18,39,13.30
2023,04,24,18,40,13.20
2023,04,24,18,41,13.20
2023,04,24,18,42,13.20
2023,04,24,18,43,13.20
2023,04,24,18,44,13.30
2023,04,24,18,45,13.30
2023,04,24,18,46,13.30
2023,04,24,18,47,13.30
2023,04,24,18,48,13.30
2023,04,24,18,49,13.40
2023,04,24,18,50,13.40
2023,04,24,18,51,13.40
2023,04,24,18,52,13.40
2023,04,24,18,53,13.50
2023,04,24,18,54,13.50
2023,04,24,18,55,13.50
2023,04,24,18,56,13.50
2023,04,24,18,57,13.40
2023,04,24,18,58,13.40
2023,04,24,18,59,13.40
2023,04,24,19,00,13.40
2023,04,24,19,01,13.30
2023,04,24,19,02,13.30
2023,04,24,19,03,13.30
2023,04,24,19,04,13.30
2023,04,24,19,05,13.30
2023,04,24,19,06,13.30
2023,04,24,19,07,13.20
2023,04,24,19,08,13.20
2023,04,24,19,09,13.20
2023,04,24,19,10,13.20
2023,04,24,19,11,13.20
2023,04,24,19,12,13.20
2023,04,24,19,13,13.20
2023,04,24,19,14,13.20
2023,04,24,19,15,13.20
2023,04,24,19,16,13.20
2023,04,24,19,17,13.20
2023,04,24,19,18,13.20
2023,04,24,19,19,13.20
2023,04,24,19,20,13.10
2023,04,24,19,21,13.10
2023,04,24,19,22,13.10
2023,04,24,19,23,13.00
2023,04,24,19,24,12.90
2023,04,24,19,25,12.90
2023,04,24,19,26,12.80
2023,04,24,19,27,12.80
2023,04,24,19,28,12.80
2023,04,24,19,29,12.80
2023,04,24,19,30,12.70
2023,04,24,19,31,12.70
2023,04,24,19,32,12.70
2023,04,24,19,33,12.60
2023,04,24,19,34,12.60
2023,04,24,19,35,12.60
2023,04,24,19,36,12.50
2023,04,24,19,37,12.50
2023,04,24,19,38,12.40
2023,04,24,19,39,12.40
2023,04,24,19,40,12.40
2023,04,24,19,41,12.30
2023,04,24,19,42,12.30
2023,04,24,19,43,12.30
2023,04,24,19,44,12.30
2023,04,24,19,45,12.30
2023,04,24,19,46,12.20
2023,04,24,19,47,12.20
2023,04,24,19,48,12.20
2023,04,24,19,49,12.10
2023,04,24,19,50,12.10
2023,04,24,19,51,12.10
2023,04,24,19,52,12.10
2023,04,24,19,53,12.00
2023,04,24,19,54,11.90
2023,04,24,19,55,11.90
2023,04,24,19,56,11.90
2023,04,24,19,57,11.80
2023,04,24,19,58,11.80
2023,04,24,19,59,11.70
2023,04,24,20,00,11.70
2023,04,24,20,01,11.70
2023,04,24,20,02,11.60
2023,04,24,20,03,11.50
2023,04,24,20,04,11.40
2023,04,24,20,05,11.40
2023,04,24,20,06,11.40
2023,04,24,20,07,11.30
2023,04,24,20,08,11.30
2023,04,24,20,09,11.30
2023,04,24,20,10,11.30
2023,04,24,20,11,11.20
2023,04,24,20,12,11.20
2023,04,24,20,13,11.20
2023,04,24,20,14,11.10
2023,04,24,20,15,11.00
2023,04,24,20,16,11.00
2023,04,24,20,17,10.90
2023,04,24,20,18,10.90
2023,04,24,20,19,10.90
2023,04,24,20,20,10.80
2023,04,24,20,21,10.80
2023,04,24,20,22,10.70
2023,04,24,20,23,10.70
2023,04,24,20,24,10.70
2023,04,24,20,25,10.70
2023,04,24,20,26,10.60
2023,04,24,20,27,10.60
2023,04,24,20,28,10.60
2023,04,24,20,29,10.60
2023,04,24,20,30,10.50
2023,04,24,20,31,10.50
2023,04,24,20,32,10.50
2023,04,24,20,33,10.50
2023,04,24,20,34,10.40
2023,04,24,20,35,10.40
2023,04,24,20,36,10.40
2023,04,24,20,37,10.30
2023,04,24,20,38,10.30
2023,04,24,20,39,10.30
2023,04,24,20,40,10.30
2023,04,24,20,41,10.30
2023,04,24,20,42,10.20
2023,04,24,20,43,10.20
2023,04,24,20,44,10.20
2023,04,24,20,45,10.10
2023,04,24,20,46,10.10
2023,04,24,20,47,10.00
2023,04,24,20,48,10.00
2023,04,24,20,49,9.90
2023,04,24,20,50,9.90
2023,04,24,20,51,9.90
2023,04,24,20,52,9.80
2023,04,24,20,53,9.80
2023,04,24,20,54,9.80
2023,04,24,20,55,9.80
2023,04,24,20,56,9.80
2023,04,24,20,57,9.70
2023,04,24,20,58,9.70
2023,04,24,20,59,9.70
2023,04,24,21,00,9.70
2023,04,24,21,01,9.70
2023,04,24,21,02,9.60
2023,04,24,21,03,9.60
2023,04,24,21,04,9.60
2023,04,24,21,05,9.60
2023,04,24,21,06,9.60
2023,04,24,21,07,9.60
2023,04,24,21,08,9.60
2023,04,24,21,09,9.50
2023,04,24,21,10,9.50
2023,04,24,21,11,9.40
2023,04,24,21,12,9.40
2023,04,24,21,13,9.40
2023,04,24,21,14,9.40
2023,04,24,21,15,9.40
2023,04,24,21,16,9.40
2023,04,24,21,17,9.30
2023,04,24,21,18,9.30
2023,04,24,21,19,9.30
2023,04,24,21,20,9.30
2023,04,24,21,21,9.30
2023,04,24,21,22,9.30
2023,04,24,21,23,9.20
2023,04,24,21,24,9.20
2023,04,24,21,25,9.20
2023,04,24,21,26,9.20
2023,04,24,21,27,9.20
2023,04,24,21,28,9.20
2023,04,24,21,29,9.20
2023,04,24,21,30,9.20
2023,04,24,21,31,9.10
2023,04,24,21,32,9.10
2023,04,24,21,33,9.10
2023,04,24,21,34,9.10
2023,04,24,21,35,9.10
2023,04,24,21,36,9.10
2023,04,24,21,37,9.10
2023,04,24,21,38,9.00
2023,04,24,21,39,9.00
2023,04,24,21,40,9.00
2023,04,24,21,41,9.00
2023,04,24,21,42,9.00
2023,04,24,21,43,8.90
2023,04,24,21,44,8.90
2023,04,24,21,45,8.90
2023,04,24,21,46,8.90
2023,04,24,21,47,8.90
2023,04,24,21,48,8.90
2023,04,24,21,49,8.90
2023,04,24,21,50,8.90
2023,04,24,21,51,8.90
2023,04,24,21,52,8.90
2023,04,24,21,53,8.90
2023,04,24,21,54,8.90
2023,04,24,21,55,8.90
2023,04,24,21,56,8.80
2023,04,24,21,57,8.80
2023,04,24,21,58,8.80
2023,04,24,21,59,8.80
2023,04,24,22,00,8.80
2023,04,24,22,01,8.80
2023,04,24,22,02,8.80
2023,04,24,22,03,8.80
2023,04,24,22,04,8.80
2023,04,24,22,05,8.80
2023,04,24,22,06,8.70
2023,04,24,22,07,8.70
2023,04,24,22,08,8.70
2023,04,24,22,09,8.70
2023,04,24,22,10,8.70
2023,04,24,22,11,8.70
2023,04,24,22,12,8.70
2023,04,24,22,13,8.60
2023,04,24,22,14,8.60
2023,04,24,22,15,8.60
2023,04,24,22,16,8.60
2023,04,24,22,17,8.60
2023,04,24,22,18,8.60
2023,04,24,22,19,8.50
2023,04,24,22,20,8.50
2023,04,24,22,21,8.50
2023,04,24,22,22,8.50
2023,04,24,22,23,8.50
2023,04,24,22,24,8.50
2023,04,24,22,25,8.40
2023,04,24,22,26,8.40
2023,04,24,22,27,8.40
2023,04,24,22,28,8.40
2023,04,24,22,29,8.40
2023,04,24,22,30,8.40
2023,04,24,22,31,8.40
2023,04,24,22,32,8.40
2023,04,24,22,33,8.40
2023,04,24,22,34,8.30
2023,04,24,22,35,8.30
2023,04,24,22,36,8.30
2023,04,24,22,37,8.30
2023,04,24,22,38,8.30
2023,04,24,22,39,8.30
2023,04,24,22,40,8.30
2023,04,24,22,41,8.30
2023,04,24,22,42,8.30
2023,04,24,22,43,8.30
2023,04,24,22,44,8.30
2023,04,24,22,45,8.30
2023,04,24,22,46,8.30
2023,04,24,22,47,8.30
2023,04,24,22,48,8.30
2023,04,24,22,49,8.20
2023,04,24,22,50,8.20
2023,04,24,22,51,8.30
2023,04,24,22,52,8.30
2023,04,24,22,53,8.20
2023,04,24,22,54,8.20
2023,04,24,22,55,8.20
2023,04,24,22,56,8.20
2023,04,24,22,57,8.20
2023,04,24,22,58,8.20
2023,04,24,22,59,8.20
2023,04,24,23,00,8.20
2023,04,24,23,01,8.20
2023,04,24,23,02,8.20
2023,04,24,23,03,8.20
2023,04,24,23,04,8.20
2023,04,24,23,05,8.20
2023,04,24,23,06,8.20
2023,04,24,23,07,8.10
2023,04,24,23,08,8.10
2023,04,24,23,09,8.10
2023,04,24,23,10,8.10
2023,04,24,23,11,8.10
2023,04,24,23,12,8.10
2023,04,24,23,13,8.10
2023,04,24,23,14,8.10
2023,04,24,23,15,8.10
2023,04,24,23,16,8.10
2023,04,24,23,17,8.10
2023,04,24,23,18,8.10
2023,04,24,23,19,8.10
2023,04,24,23,20,8.10
2023,04,24,23,21,8.10
2023,04,24,23,22,8.10
2023,04,24,23,23,8.10
2023,04,24,23,24,8.10
2023,04,24,23,25,8.10
2023,04,24,23,26,8.10
2023,04,24,23,27,8.10
2023,04,24,23,28,8.10
2023,04,24,23,29,8.00
2023,04,24,23,30,8.00
2023,04,24,23,31,8.00
2023,04,24,23,32,8.00
2023,04,24,23,33,8.00
2023,04,24,23,34,8.00
2023,04,24,23,35,7.90
2023,04,24,23,36,7.90
2023,04,24,23,37,7.90
2023,04,24,23,38,7.90
2023,04,24,23,39,7.90
2023,04,24,23,40,7.90
2023,04,24,23,41,7.90
2023,04,24,23,42,7.90
2023,04,24,23,43,7.90
2023,04,24,23,44,7.90
2023,04,24,23,45,7.90
2023,04,24,23,46,7.90
2023,04,24,23,47,7.90
2023,04,24,23,48,7.90
2023,04,24,23,49,7.90
2023,04,24,23,50,7.90
2023,04,24,23,51,7.90
2023,04,24,23,52,7.90
2023,04,24,23,53,7.90
2023,04,24,23,54,7.90
2023,04,24,23,55,7.90
2023,04,24,23,56,7.90
2023,04,24,23,57,7.90
2023,04,24,23,58,7.80
2023,04,24,23,59,7.80
